Regional Weather Roundup
Issued by NWS Sterling, VA

Home | Current Version | Previous Version | Graphics & Text | Print | Product List | Glossary On
Versions: 1 2 3 4 5 6 7 8 9 10 11 12 13 14 15 16 17 18 19 20 21 22 23 24 25 26 27 28 29 30 31 32 33 34 35 36 37 38 39 40 41 42 43 44 45 46 47 48 49 50
000
ASUS41 KLWX 070110
RWRLWX

REGIONAL WEATHER ROUNDUP
NATIONAL WEATHER SERVICE BALTIMORE MD/WASHINGTON DC
900 PM EDT MON JUL 06 2015

Note: "FAIR" indicates few or no clouds below 12,000 feet
with no significant weather and/or obstructions to visibility.
 TC=TEMPERATURE CELSIUS

 * =Non NWS site. Station does not report precipitation (e.g. rain,
    snow, etc.), thunder, or fog.

DCZ001-MDZ009-015-VAZ040>042-051-053>054-070200-
WASHINGTON METRO

CITY           SKY/WX    TMP DP  RH WIND       PRES   REMARKS
WASHINGTON NAT MOCLDY    79  72  79 S5        30.03R
DULLES         MOCLDY    75  73  93 CALM      30.02R
ANDREWS AFB    MOCLDY    75  74  98 E6        30.02S
FT BELVOIR     PTCLDY    76  73  88 CALM      30.02R
QUANTICO       MOCLDY    80  72  75 SW6       29.99
COLLEGE PARK*  MOCLDY    73  73 100 CALM      30.03R
LEESBURG*      PTCLDY    79  75  89 SE8       30.03S
MANASSAS*      CLEAR     75  73  94 CALM      30.02S
GAITHERSBURG*  PTCLDY    73  70  88 E3        30.07S

$$

MDZ006>007-011-014-070200-
BALTIMORE METRO

CITY           SKY/WX    TMP DP  RH WIND       PRES   REMARKS
BWI AIRPORT    TSTM      73  71  93 S14G28    30.05R VSB 3/4
MD SCIENCE CTR   N/A     80  70  71 MISG      30.03R
MARTIN STATE   PTCLDY    81  77  89 S6        30.04S
ANNAPOLIS      RAIN      81  75  82 S10G20    30.02S
FORT MEADE*    CLOUDY    72  68  88 E8        30.06R

$$

MDZ012-015-019>023-070200-
MARYLAND EASTERN SHORE

CITY           SKY/WX    TMP DP  RH WIND       PRES   REMARKS
OCEAN CITY     PTCLDY    77  73  87 VRB5      30.08R
SALISBURY      CLEAR     77  73  87 SE7       30.05F
BAY BRIDGE AP*   N/A     81  73  78 SE9       30.03S
CAMBRIDGE*     PTCLDY    81  70  69 S8        30.05R
EASTON*        MOCLDY    82  75  78 S8        30.08R

$$

MDZ017>025-070200-
SOUTHERN MARYLAND

CITY           SKY/WX    TMP DP  RH WIND       PRES   REMARKS
PATUXENT RIVER LGT RAIN  73  70  90 S5        30.03F
ST INIGOES     NOT AVBL
LEONARDTOWN*   CLOUDY    72  70  94 S5        30.05F

$$

MDZ003>005-070200-
NORTH CENTRAL MARYLAND

CITY           SKY/WX    TMP DP  RH WIND       PRES   REMARKS
FREDERICK*     CLOUDY    77  73  88 E3        30.05
HAGERSTOWN APT PTCLDY    77  70  79 SE6       30.02F
WESTMINSTER*   PTCLDY    73  72  94 S5        30.05S

$$

MDZ501>502-070200-
WESTERN MARYLAND

CITY           SKY/WX    TMP DP  RH WIND       PRES   REMARKS
OAKLAND*       PTCLDY    64 N/A N/A SW5       30.12F
CUMBERLAND*    MOCLDY    73  73 100 SW3       30.06S

$$

VAZ025>031-070200-
SHENANDOAH VALLEY

CITY           SKY/WX    TMP DP  RH WIND       PRES   REMARKS
WINCHESTER*    CLOUDY    75  70  83 CALM      30.03R
FRONT ROYAL*   MOCLDY    73  70  88 CALM      30.02S
LURAY*         FAIR      77  72  83 S3        30.04S
NEW MARKET*    FAIR      71  69  93 CALM      30.02S
STAUNTON*      PTCLDY    76  70  81 S3        30.08S
WAYNESBORO*    FAIR      73  68  84 SW7       30.08S

$$

WVZ021-048>050-054>055-070200-
EASTERN WEST VIRGINIA PANHANDLE

CITY           SKY/WX    TMP DP  RH WIND       PRES   REMARKS
MARTINSBURG    CLEAR     75  70  84 CALM      30.03R
PETERSBURG*    PTCLDY    69  65  86 CALM      30.05S

$$

VAZ036>039-050-070200-
CENTRAL FOOTHILLS

CITY           SKY/WX    TMP DP  RH WIND       PRES   REMARKS
CHARLOTTESVILL CLEAR     74  71  91 S5        30.04S
CULPEPER*      CLEAR     73  73  97 CALM      30.03R
ORANGE*        CLEAR     73  72  94 SE5       30.06R
GORDONSVILLE*  FAIR      73  72  94 CALM      30.03S
WARRENTON*     FAIR      77  73  89 CALM      30.02S

$$

VAZ055>057-070200-
NORTH AND CENTRAL PIEDMONT

CITY           SKY/WX    TMP DP  RH WIND       PRES   REMARKS
FREDERICKSBRG* CLEAR     76  76 100 SW3       30.02R
STAFFORD*      CLEAR     74  70  88 CALM      30.06S

$$

NCZ024-NYZ072-PAZ021-071-VAZ022-071-070200-
OTHER REGIONAL OBSERVATIONS

CITY           SKY/WX    TMP DP  RH WIND       PRES   REMARKS
NEW YORK CITY  MOCLDY    75  62  64 S8        30.12F
PHILADELPHIA   MOCLDY    80  69  69 SE9       30.06S
PITTSBURGH     CLOUDY    74  67  78 CALM      30.01F
ROANOKE        CLOUDY    75  66  73 SW5       30.11R
RICHMOND       PTCLDY    76  72  87 CALM      30.04S
RALEIGH        MOCLDY    80  68  66 SW7       30.07S

$$

ANZ530>537-070200-
MARINE OBSERVATIONS

STATION/POSITION TIME  TEMP    WIND        PRES
                       AIR SEA DIR/SP/G
                 (UTC) (F)     (DEG/KT/KT) (MB)
THOMAS PT LIGHT  0000   80 78  170/ 14/ 15 1017.0
BALT KEY BRIDGE  0000   82     140/ 10/ 11 1016.1F
COVE POINT       0000   79     190/ 18/ 22 1017.5S
LEWISETTA        0000   75 83  240/  3/  4 1017.4R
SOLOMONS ISLAND  0000      81                N/A
PINEY POINT      0000          160/  3/  4   N/A

$$



USA.gov is the U.S. government's official web portal to all federal, state and local government web resources and services.